Tracking 19847 objects as of 15-Sep-2019
HD Live streaming from Space Station
objects crossing your sky now

COSMOS 2227

Track COSMOS 2227 now!
10-day predictions
COSMOS 2227 is classified as:


NORAD ID: 22284
Int'l Code: 1992-093A
Perigee: 842.3 km
Apogee: 868.2 km
Inclination: 71.0 °
Period: 101.9 minutes
Semi major axis: 7226 km
RCS: 7.0075 m2 (large)
Launch date: December 25, 1992
Source: Commonwealth of Independent States (former USSR) (CIS)
Launch site: TYURATAM MISSILE AND SPACE COMPLEX (TTMTR)
aabbcc
Your satellite tracking list
Your tracking list is empty




NASA's NSSDC Master Catalog

Two Line Element Set (TLE):
1 22284U 92093A   19257.72297770 -.00000008 +00000-0 +21370-4 0  9992
2 22284 070.9774 317.4416 0017903 008.4245 351.7173 14.13293044378166
Source of the keplerian elements: AFSPC